Home   Weather   Neuss   Past weeks

Flag for Germany Past Weather in Neuss, North Rhine-Westphalia, Germany — Yesterday and Last 2 Weeks

Now
57 °F

Light rain. Passing clouds.


Feels Like: 55 °F
Forecast: 60 / 73 °F
Wind: 9 mph from Northwest

Location: Duesseldorf

Current Time: Jul 25, 2017 at 5:01:58 am

Latest Report: Jul 25, 2017 at 4:20 am


Visibility: 4 mi

Pressure: 29.83 "Hg

Humidity: 94%

Dew Point: 55 °F

Location of NeussLocation

Past Weather in Neuss — Graph

°F

Neuss Temperature Yesterday

Maximum temperature yesterday: 64 °F (at 1:50 pm)
Minimum temperature yesterday: 55 °F (at 4:04 pm)
Average temperature yesterday: 60 °F

High & Low Weather Summary for the Past Weeks

 TemperatureHumidityPressure
High90 °F (Jul 19, 1:50 pm)100% (Jul 12, 10:31 am)30.24 "Hg (Jul 12, 10:31 am)
Low46 °F (Jul 13, 4:20 am)34% (Jul 10, 2:50 pm)29.68 "Hg (Jul 12, 12:58 pm)
Average66 °F70%29.96 "Hg
* Reported Jul 10 3:20 am — Jul 25 3:50 am, Neuss. Weather by CustomWeather, © 2017

Note: Actual official high and low records may vary slightly from our data, if they occured in-between our weather recording intervals... More about our weather records

Advertising

Neuss Weather History for the Previous 24 Hours

Scroll right to see more
 ConditionsComfort  
Time TempWeatherWind HumidityBarometerVisibility
3:50 am
Tue, Jul 25
59 °FPassing clouds.6 mph94%29.83 "Hg4 mi
3:20 am57 °FLight rain. Partly cloudy.5 mph100%29.83 "Hg5 mi
2:50 am57 °FLight rain. Passing clouds.7 mph100%29.83 "Hg6 mi
2:20 am57 °FLight rain. Partly cloudy.5 mph94%29.83 "Hg6 mi
1:50 am57 °FPassing clouds.3 mph94%29.83 "HgN/A
1:20 am57 °FPartly cloudy.1 mph94%29.83 "HgN/A
12:50 am55 °FPartly cloudy.1 mph100%29.83 "HgN/A
12:20 am57 °FFog.2 mph94%29.83 "HgN/A
11:50 pm
Mon, Jul 24
55 °FFog.2 mph100%29.83 "HgN/A
11:20 pm57 °FFog.1 mph94%29.83 "HgN/A
10:50 pm57 °FPartly cloudy.2 mph94%29.83 "HgN/A
10:20 pm57 °FPassing clouds.2 mph94%29.83 "HgN/A
9:50 pm59 °FSprinkles. Passing clouds.6 mph88%29.83 "HgN/A
9:20 pm61 °FSprinkles. Broken clouds.6 mph83%29.83 "HgN/A
8:50 pm61 °FScattered showers. Broken clouds.1 mph88%29.83 "HgN/A
8:20 pm61 °FScattered showers. Partly sunny.2 mph88%29.80 "HgN/A
7:50 pm63 °FScattered showers. Broken clouds.3 mph83%29.80 "HgN/A
7:20 pm63 °FScattered showers. Broken clouds.2 mph83%29.80 "HgN/A
6:50 pm64 °FScattered showers. Partly sunny.3 mph78%29.80 "HgN/A
6:20 pm63 °FPartly sunny.5 mph77%29.80 "HgN/A
5:50 pm61 °FSprinkles. Broken clouds.5 mph88%29.80 "HgN/A
5:20 pm57 °FSprinkles. Broken clouds.2 mph94%29.80 "HgN/A
4:50 pm57 °FRain showers. Broken clouds.6 mph94%29.80 "HgN/A
4:20 pm55 °FRain showers. Broken clouds.7 mph94%29.80 "HgN/A
4:04 pm55 °FRain showers. Broken clouds.9 mph94%29.80 "Hg6 mi
3:26 pm57 °FLots of rain. Broken clouds.18 mph88%29.80 "HgN/A
3:00 pm64 °FThundershowers. Broken clouds.3 mph68%29.77 "HgN/A
2:20 pm63 °FSprinkles. Broken clouds.1 mph77%29.77 "HgN/A
1:50 pm64 °FSprinkles. Broken clouds.2 mph73%29.77 "HgN/A
1:20 pm63 °FSprinkles. Broken clouds.2 mph83%29.77 "HgN/A
12:50 pm63 °FSprinkles. Partly sunny.3 mph83%29.77 "HgN/A
12:20 pm59 °FRain showers. Broken clouds.3 mph94%29.80 "Hg6 mi
12:03 pm59 °FRain showers. Broken clouds.5 mph88%29.80 "Hg5 mi
11:20 am61 °FSprinkles. Broken clouds.9 mph83%29.80 "Hg5 mi
10:50 am61 °FBroken clouds.5 mph83%29.77 "HgN/A
10:20 am61 °FBroken clouds.6 mph83%29.77 "HgN/A
9:50 am59 °FBroken clouds.6 mph88%29.80 "HgN/A
9:20 am59 °FBroken clouds.6 mph88%29.80 "HgN/A
8:50 am59 °FBroken clouds.3 mph88%29.80 "HgN/A
8:20 am59 °FLight rain. Broken clouds.3 mph88%29.80 "HgN/A
7:50 am57 °FLight rain. More clouds than sun.6 mph94%29.80 "HgN/A
7:20 am57 °FLight rain. Cloudy.7 mph94%29.80 "HgN/A
6:50 am57 °FLight rain. Cloudy.7 mph94%29.80 "HgN/A
5:50 am59 °FLight rain. More clouds than sun.8 mph88%29.80 "HgN/A
5:20 am59 °FLight rain. Mostly cloudy.9 mph88%29.83 "HgN/A
Weather by CustomWeather, © 2017

See weather overviewHow to use our weather pages